Iwojima, Japan

1:21 PM JST on April 30, 2017 (GMT +0900)
Iwojima Aero

Weather History for RJAW - November, 2012

Change the Weather History Date:

Monday, November 12, 2012

  Actual Average Record
Temperature  
Mean Temperature 76 °F -  
Max Temperature 80 °F 75 °F 86 °F (2008)
Min Temperature 73 °F 71 °F 69 °F (1997)
Cooling Degree Days 12    
Growing Degree Days 26 (Base 50)    
Moisture  
Dew Point 66 °F    
Average Humidity 68    
Maximum Humidity 73    
Minimum Humidity 61    
Precipitation  
Precipitation 0.00 in - - ()
Sea Level Pressure  
Sea Level Pressure 29.97 in    
Wind  
Wind Speed 6 mph ()    
Max Wind Speed 12 mph    
Max Gust Speed -    
Visibility 6.2 miles    
Events      
Averages and records for this station are not official NWS values.
T = Trace of Precipitation, MM = Missing Value Source: Averaged Metar Reports

Daily Weather History Graph

Daily Weather History Graph

Search for Another Location

Airport or City:

Trip Planner

Search our weather history database for the weather conditions in past years. The results will help you decide how hot, cold, wet, or windy it might be!

Date:

Astronomy

Nov. 12, 2012 Rise Set
Actual Time 6:48 AM ChST 5:48 PM ChST
Civil Twilight 6:24 AM ChST 6:12 PM ChST
Nautical Twilight 5:57 AM ChST 6:39 PM ChST
Astronomical Twilight 5:30 AM ChST 7:07 PM ChST
Moon 4:38 AM ChST (11/12) 4:19 PM ChST (11/12)
Length of Visible Light 11h 47m
Length of Day
10h 59m
Waning Crescent, 5% of the Moon is Illuminated
Nov 12
Waning Crescent
Nov 14
New
Nov 21
First Quarter
Nov 29
Full
Dec 7
Last Quarter

Hourly Weather History & Observations

Time (ChST) Temp. Heat Index Dew Point Humidity Pressure Visibility Wind Dir Wind Speed Gust Speed Precip Events Conditions
1:00 AM 73.4 °F - 64.4 °F 73% 30.04 in 6.2 mi ESE 11.5 mph - N/A   Scattered Clouds
4:00 AM 73.4 °F - 64.4 °F 73% 29.98 in 6.2 mi SE 5.8 mph - N/A   Partly Cloudy
6:00 AM 75.2 °F - 64.4 °F 69% 29.98 in 6.2 mi SSE 5.8 mph - N/A   Partly Cloudy
7:00 AM 75.2 °F - 64.4 °F 69% 29.98 in 6.2 mi South 5.8 mph - N/A   Partly Cloudy
8:00 AM 77.0 °F - 66.2 °F 69% 30.01 in 6.2 mi SSE 4.6 mph - N/A   Partly Cloudy
9:00 AM 77.0 °F - 66.2 °F 69% 30.01 in 6.2 mi SSE 6.9 mph - N/A   Partly Cloudy
10:00 AM 78.8 °F - 66.2 °F 65% 30.01 in 6.2 mi South 6.9 mph - N/A   Partly Cloudy
11:00 AM 78.8 °F - 68.0 °F 69% 29.98 in 6.2 mi South 8.1 mph - N/A   Partly Cloudy
12:00 PM 80.6 °F 82.7 °F 66.2 °F 61% 29.98 in 6.2 mi South 6.9 mph - N/A   Partly Cloudy
1:00 PM 78.8 °F - 68.0 °F 69% 29.95 in 6.2 mi South 6.9 mph - N/A   Scattered Clouds
2:00 PM 80.6 °F 83.2 °F 68.0 °F 65% 29.92 in 6.2 mi WSW 5.8 mph - N/A   Scattered Clouds
2:05 PM 80.6 °F 83.2 °F 68.0 °F 65% 29.92 in 6.2 mi WNW 4.6 mph - N/A   Mostly Cloudy
3:00 PM 78.8 °F - 66.2 °F 65% 29.92 in 6.2 mi NE 4.6 mph - N/A   Mostly Cloudy
4:00 PM 78.8 °F - 66.2 °F 65% 29.92 in 6.2 mi NE 3.5 mph - N/A   Mostly Cloudy
4:22 PM 78.8 °F - 66.2 °F 65% 29.92 in 6.2 mi NNW 4.6 mph - N/A   Scattered Clouds
5:00 PM 78.8 °F - 66.2 °F 65% 29.92 in 6.2 mi WNW 4.6 mph - N/A   Partly Cloudy
6:00 PM 77.0 °F - 66.2 °F 69% 29.95 in 6.2 mi WNW 3.5 mph - N/A   Partly Cloudy
7:00 PM 77.0 °F - 66.2 °F 69% 29.95 in 6.2 mi WNW 3.5 mph - N/A   Partly Cloudy
10:00 PM 77.0 °F - 66.2 °F 69% 30.01 in 6.2 mi WNW 3.5 mph - N/A   Partly Cloudy